Location: Wayah Bald
(35.1806°N, 83.5603°W)
Time: 16:13:22
(UTC-05:00)

Daily predictions for brighter satellites

Satellite Brightness Start Highest point End
(mag) Time Altitude Azimuth Time Altitude Azimuth Time Altitude Azimuth
AQUARIUS 4.4 17:44:22 10° SSE 17:48:41 48° ENE 17:53:00 10° N
Cosmos 2366 rocket 4.0 17:43:32 10° N 17:49:53 76° E 17:56:08 10° S
Cosmos 1484 Rocket 4.1 17:50:22 10° ESE 17:52:53 17° ENE 17:55:23 10° NNE
PAYLOAD A 4.0 17:52:12 10° S 17:57:00 83° WSW 18:02:02 10° NNW
Cosmos 1238 Rocket 3.4 17:54:26 10° SSW 17:57:14 43° W 18:00:14 10° N
Cosmos 2218 Rocket 4.2 17:53:58 10° N 18:00:13 77° W 18:06:22 10° S
Cosmos 1975 2.8 17:57:14 10° N 18:01:17 67° E 18:05:16 10° SSE
USA 234 3.6 17:54:53 10° NE 18:01:22 68° NW 18:07:50 10° WSW
CZ-4 R/B 1.6 18:00:57 10° S 18:05:07 80° WSW 18:09:16 10° NNW
Meteor 1-13 Rocket 4.4 18:01:15 10° S 18:06:45 55° E 18:12:24 10° NNE
MSX 3.9 18:02:35 10° SSE 18:08:09 54° ENE 18:13:43 10° N
MOS 1 4.3 18:02:37 10° SSE 18:08:17 85° ENE 18:13:57 10° NNW
CORIOLIS 4.1 18:06:54 10° SSE 18:12:18 77° ENE 18:17:42 10° N
Meteor 2-4 Rocket 4.3 18:07:56 10° SSE 18:12:39 32° E 18:17:21 10° NNE
CZ-2C R/B 2.5 18:08:16 10° SSE 18:13:16 87° WSW 18:18:26 10° NNW
Abrixas 3.7 18:11:05 10° NNW 18:13:36 25° NNE 18:15:00 17° ENE
COSMO-SKYMED 1 3.0 18:11:36 10° NNE 18:15:44 42° E 18:19:50 10° S
CZ-3B DEB 3.6 18:14:10 10° WNW 18:17:41 27° NNW 18:24:57 10° NE
Cosmos 2056 Rocket 4.1 18:14:14 10° SSE 18:19:10 37° E 18:23:51 11° NE
Cosmos 921 Rocket 3.0 18:19:04 10° SSW 18:23:17 85° W 18:27:38 10° NNE
Cosmos 1821 Rocket 4.3 18:17:39 10° N 18:23:21 40° E 18:29:02 10° SSE
Cosmos 1025 Rocket 3.5 18:19:34 10° SSE 18:23:38 39° E 18:27:44 10° NNE
Timation 2 Rocket 4.2 18:18:21 10° NNW 18:25:12 69° ENE 18:32:02 10° SSE
ATLAS 2AS CENTAUR R/B 4.2 18:22:39 10° NW 18:30:03 44° WSW 18:36:54 10° S
Cosmos 1624 Rocket 4.1 18:27:06 10° S 18:32:08 55° ESE 18:36:48 12° NNE
Cosmos 1340 4.2 18:33:01 10° SE 18:34:57 19° ESE 18:34:57 19° ESE
YAOGAN 1 3.6 18:32:23 10° S 18:36:35 49° W 18:40:47 10° NNW
Cosmos 1371 Rocket 4.0 18:32:27 10° SSW 18:37:47 80° ESE 18:43:10 10° NNE
Cosmos 2297 4.5 18:32:46 10° SW 18:38:14 51° WNW 18:43:43 10° N
Meteor 2-21 Rocket 4.4 18:36:48 10° N 18:43:00 90° W 18:49:07 10° S
Meteor 2-16 Rocket 4.3 18:37:56 10° N 18:44:02 75° E 18:50:06 10° SSE
COSMOS 2487 4.1 18:41:33 10° NNW 18:44:55 38° WSW 18:48:15 10° S
Nadezhda 3 Rocket 4.4 18:40:25 10° SSW 18:46:33 66° W 18:52:48 10° N
Cosmos 2278 Rocket 4.5 18:44:03 10° WSW 18:48:08 20° WNW 18:52:15 10° N
Orbus 7S? 4.2 18:52:24 10° S 18:54:07 22° SSE 18:54:07 22° SSE
Cosmos 1666 2.7 18:51:55 10° N 18:55:45 59° E 18:59:34 10° SSE
GEOS 3 Rocket 4.4 19:00:07 31° NE 19:00:07 31° NE 19:04:16 10° NNW
SKYMED 2 4.4 18:59:34 10° N 19:03:46 49° WNW 19:07:57 10° SSW
Delta 2 Rocket 3.0 19:01:27 10° W 19:05:11 84° N 19:05:39 68° ENE
Cosmos 1727 Rocket 4.1 19:02:09 10° SSE 19:08:06 50° E 19:10:52 30° NE
Cosmos 1452 Rocket 3.8 19:03:12 10° S 19:08:09 43° ESE 19:08:13 43° E
Cosmos 1833 Rocket 3.0 19:03:49 10° NNW 19:09:25 68° WSW 19:14:58 10° S
Cosmos 1190 Rocket 3.9 19:07:44 10° N 19:12:55 59° ENE 19:15:37 27° SE
Tiangong 1 3.6 19:13:07 10° NW 19:14:01 15° NW 19:14:01 15° NW
Cosmos 1892 Rocket 3.4 19:11:40 10° S 19:16:00 88° WNW 19:17:15 47° N
Cosmos 2082 Rocket 3.1 19:11:09 10° NNW 19:16:36 48° WSW 19:22:01 10° S
FALCON 9 R/B 3.2 18:58:01 10° W 19:21:46 87° S 19:24:36 43° E
Meteor 1-28 Rocket 4.2 19:21:17 27° NNW 19:22:53 44° WNW 19:26:28 10° SSW
Cosmos 1726 Rocket 3.6 19:22:13 10° N 19:26:40 81° W 19:31:07 10° S
Okean 2 4.1 19:24:51 10° SSW 19:28:54 52° W 19:30:08 38° NNW
Cosmos 1934 Rocket 4.4 19:29:44 10° NNW 19:35:52 62° W 19:42:04 10° S
Cosmos 1339 Rocket 4.3 19:38:58 10° S 19:45:03 90° E 19:45:55 67° N
Cosmos 2369 Rocket 2.3 19:45:57 10° SSW 19:50:46 67° SSW 19:50:46 67° SSW
NOSS 3-4 (A) 4.3 19:59:17 10° NW 20:06:18 60° WSW 20:11:08 23° S
NOSS 3-4 (C) 4.2 19:59:23 10° NW 20:06:24 60° WSW 20:10:59 25° S
BREEZE M DEB (TANK) 4.4 20:11:57 10° NW 20:17:27 81° NE 20:18:05 77° E
ATLAS 3B CENTAUR R/B 3.7 20:07:56 10° W 20:22:31 46° SSW 20:23:22 44° S
